DELTA 1 DEB

Satellite information

Favourite Embed

Satellite Type and Status

DEBRISIN ORBIT

Key statistics

Satellite DELTA 1 DEB at a glance.

Uptime

17451

Days in orbit

Revolutions

≈ 14.1

Per day

Orbit

SSO

Sun Synchronous Orbit

Inclination

98.7

Latest

Satellite identification and parameters

Extended collection of information and parameters for DELTA 1 DEB.

Object identification

Identified? True

Debris? True

Object name: DELTA 1 DEB

International designator: 1978-026GJ

Object number (NORAD): 14909

Object ID (CCSDS): 14909

Country: UNITED STATES OF AMERICA (US)

Current information (Y/N): Y

RCS size: SMALL

Orbital parameters

Period: 102.474 minutes

Inclination: 98.7226 deg

SMA: 7253.866 km

Apoapsis: 972.976 km

Periapsis: 778.486 km

RAAN: 36.2843 deg

Eccentricy: 0.01340595

Argument of periapsis: 6.5059 deg

Mean anomaly: 47.878 deg

Mean motion: 14.05233489 rev/day

Mean motion (dot): 0.00003862 rev/day2

B* drag term: 0.0022272534 1/REarth

Two-line elements (TLE)

Creation date: Dec. 13, 2025, 5:47 p.m.

Reference frame: TEME

Reference center: EARTH

Epoch: Dec. 13, 2025, 2:31 a.m. UTC

TLE line 0: 0 DELTA 1 DEB

TLE line 1: 1 14909U 78026GJ 25347.10514804 .00003862 00000-0 22273-2 0 9997

TLE line 2: 2 14909 98.7226 36.2843 0134059 6.5059 47.8780 14.05233489220054

Live tracking on map

Real-time ground track for satellite DELTA 1 DEB.

In-orbit conjunctions

A list of the most updated potential collisions computed for object DELTA 1 DEB.

Target Orbit TCA Probability of collision Miss distance Type
NADEZHDA 3 LEO 2025-11-23 13:38:02 0.0001869936 584.0 (m) PAYLOAD

Associated space launch

Earth observation satellite

DELTA 1 DEB was lifted into orbit during the mission ‘Delta 2910 | Landsat 3’, on board a Delta 2910 space rocket.

The launch took place on March 5, 1978, 5:54 p.m. from Space Launch Complex 2W.

For more information about the launch, click the button.

Launch to space Delta 2910 | Landsat 3
Delta 2910 | Landsat 3

Agency: N/A

Status: Launch Successful

Launch date: March 5, 1978, 5:54 p.m. UTC

Rocket: Delta 2910

Launch pad: Space Launch Complex 2W

Location: Vandenberg SFB, CA, USA

...

Latest news about this satellite

There are no fresh news available about this satellite. Check back as we update our databases every day.


Newsletter sign-up

Weekly statistics, charts and insights to help you stay on top of the space industry.